STARLINK-32793, 62874

Orbit data source: Space-Track

STARLINK-32793, 62874 is a payload satellite owned by SpaceX/Seattle (US) in LEO that was launched on Sat, 01 Feb 2025 UTC via an FALCON 9 launch vehicle from the Air Force Western Test Range (AFWTR). Payload-class satellites include a variety of spacecraft equipped with specific instruments for various scientific and technological missions. These include communications satellites like Starlink; space stations such as the ISS; scientific satellites like the Hubble; Earth observation satellites from companies like Planet Labs, Umbra, and HawkEye 360; GPS; miniature CubeSats for education and research; and military/defense satellites.

Loading next visibility...
Identifier
62874, 2025-022W
Orbit
LEO
Country
Flag of USUS
Related business
Manufacturer
SpaceX/Seattle
Mission
Operational Commercial Communications
Bus & Motor
STARLINK V2M, Unknown motor
Mass
730 kg wet, ~700 kg dry
Launch date (UTC)
2025-02-01 (9 months ago)
Launch vehicle
FALCON 9
Launch site
Air Force Western Test Range (AFWTR)
Object type
Payload
Rocket body
Debris
Shape & HBR
Box + 2 Pan, 17.7 m
Radar Cross Section
33.884 m², Large (>1 m²)

Expand to show TLE details & history
Last TLE update: 9 hours ago

TLE from 9 hours ago
0 STARLINK-32793
1 62874U 25022W   25293.66671296  .00037600  00000-0  12769-2 0  9995
2 62874  53.1595  60.1374 0001352  91.6237 144.2170 15.30157987  5883
Epoch: 2025-10-20T16:00Z
TLE epoch observation values (Epoch: 2025-10-20T16:00:03.999Z)
Latitude
-41.67683°
Longitude
12.30608°
Altitude
489.953 km
Speed
7.619 km/s
True Right ascension
18h 46m 45s
True Declination
-41° 29' 58"
Sunlit
Object was in daylight at epoch
Visualization orbit readout
Latitude
Unknown
Longitude
Unknown
Altitude
Unknown
Speed
Unknown
Apparent Right ascension
Unknown
Apparent Declination
Unknown
Sunlit
N/A
Visualization observer readout
Local Sidereal Time
19:30:13
Azimuth
Unknown
Elevation
Unknown
Doppler factor
Unknown
Orbital elements
Apogee altitude
476.524 km
Perigee altitude
474.67 km
Semi-major axis
6,853.734 km
Eccentricity
0.00014
Inclination
53.1595°
RAAN
60.1374°
Arg. of periapsis
91.6237°
True anomaly
144.22606°
Mean anomaly
144.217°
Eccentric anomaly
144.22153°
Mean motion
3.82518 °/min
Orbital period
94.11 mins
BSTAR
0.0012769
Loading maneuver chart data...
Computing Atmospheric mass density...
Loading historical data...
Loading historical data...
Loading historical data...
Loading historical data...
Loading historical data...
Loading historical data...
Loading historical data...

Documentation

Showing up to 5 results
|